HISPASAT 36W-1

Last updated on Wed Sep 09 2026 00:03:01 GMT+0000 (Coordinated Universal Time)

1 41942U 17006A 26251.01025944 -.00000265 00000+0 00000+0 0 9997 2 41942 0.0163 327.7180 0001058 195.8205 151.2378 1.00271129 35079
UTC large
Height (km)
Speed (km/s)
/
Latitude / Longitude
Inclination (degrees)
Orbital Period (minutes)
Azimuth
Elevation
Range (km)
Doppler Factor

Next 0 passes for location: London (51.5072 / 0.1276)

No passes found over London.
HISPASAT 36W-1